Location: Unspecified
(35.6961°N, 0.0000°E)
Time: 23:05:12
(UTC+00:00)

S-56A Canister/Altair - Visible Passes

Search period start: 19 May 2019 00:00
Search period end: 29 May 2019 00:00
Orbit: 633 x 2500 km, 38.9° (Epoch: 17 May)

Date Brightness Start Highest point End Pass type
(mag) Time Alt. Az. Time Alt. Az. Time Alt. Az.
19 May 10.2 00:31:03 17° ESE 00:31:03 17° ESE 00:34:00 10° E visible
19 May 8.7 02:28:27 44° SW 02:31:16 74° SSE 02:42:08 10° ENE visible
19 May 10.6 23:59:53 10° E 23:59:53 10° E 23:59:57 10° E visible
20 May 8.4 01:57:17 59° SSW 01:58:26 66° SSE 02:08:25 10° ENE visible
20 May 9.3 03:55:19 10° W 04:03:34 76° N 04:16:13 10° E visible
21 May 8.5 01:26:06 57° SE 01:26:06 57° SE 01:34:47 10° ENE visible
21 May 9.1 03:23:30 14° W 03:30:27 77° N 03:42:20 10° E visible
22 May 9.0 00:54:54 41° ESE 00:54:54 41° ESE 01:01:12 10° ENE visible
22 May 8.8 02:52:18 23° W 02:57:24 79° N 03:08:31 10° ENE visible
23 May 9.6 00:23:41 27° E 00:23:41 27° E 00:27:42 10° ENE visible
23 May 8.5 02:21:06 35° W 02:24:28 82° NNW 02:34:47 10° ENE visible
23 May 9.4 04:21:38 10° WNW 04:30:04 77° N 04:42:56 10° E visible
23 May 10.1 23:52:29 16° E 23:52:29 16° E 23:54:14 10° E visible
24 May 8.3 01:49:53 55° W 01:51:36 86° NNW 02:01:08 10° ENE visible
24 May 9.2 03:49:05 10° W 03:56:56 75° N 04:09:02 10° E visible
25 May 8.0 01:18:40 86° SW 01:18:50 89° SSE 01:27:34 10° ENE visible
25 May 9.0 03:16:36 10° W 03:23:52 73° N 03:35:10 10° E visible
26 May 8.3 00:47:27 60° E 00:47:27 60° E 00:54:07 10° ENE visible
26 May 8.8 02:44:51 14° W 02:50:53 71° N 03:01:22 10° E visible
27 May 9.0 00:16:15 36° E 00:16:15 36° E 00:20:45 10° ENE visible
27 May 8.6 02:13:39 23° W 02:17:58 70° N 02:27:38 10° E visible
27 May 9.1 04:15:16 10° WNW 04:23:15 89° SSW 04:35:34 10° ESE visible
27 May 9.6 23:45:03 22° ENE 23:45:03 22° ENE 23:47:30 10° ENE visible
28 May 8.4 01:42:27 37° WNW 01:45:08 70° N 01:54:00 10° E visible
28 May 8.9 03:42:48 10° WNW 03:50:12 86° NNE 04:01:46 10° ESE visible
28 May 10.2 23:13:52 12° ENE 23:13:52 12° ENE 23:14:20 10° ENE visible
